EW6664 Weather Reports


Display with metric or nautical units.
time (UTC)temp
F
wind
direction
speed
MPH
gust
MPH
rain 1hr
in
rain 24hr
in
rain mn
in
humidity
%
barometer
mb
20260506172543 42 53 0.0 1.0 0.05 0.71 0.71 98 1008.2
20260506172039 42 77 1.0 1.0 0.07 0.70 0.70 98 1008.4
20260506171537 42 71 0.0 1.0 0.00 0.69 0.69 98 1008.1
20260506171034 42 86 0.0 1.0 0.00 0.69 0.69 97 1008.0
20260506170531 42 63 1.0 1.0 0.05 0.69 0.69 98 1008.4
20260506170024 42 62 1.0 1.0 0.05 0.69 0.69 98 1008.5
20260506165522 42 91 0.0 1.0 0.07 0.68 0.68 97 1008.6
20260506165017 42 39 0.0 1.0 0.14 0.68 0.68 98 1008.4
20260506164514 42 39 0.0 1.0 0.07 0.67 0.67 97 1008.8
20260506164012 42 44 0.0 1.0 0.05 0.66 0.66 97 1008.5
20260506163507 42 51 0.0 1.0 0.12 0.66 0.66 97 1008.7
20260506163003 42 51 0.0 1.0 0.07 0.65 0.65 97 1008.6
20260506162500 42 51 1.0 1.0 0.12 0.64 0.64 97 1008.8
20260506161956 42 51 0.0 1.0 0.12 0.63 0.63 97 1008.8
20260506161454 42 50 1.0 3.0 0.12 0.62 0.62 97 1008.7
20260506160946 42 51 1.0 1.0 0.19 0.61 0.61 97 1008.9
20260506160443 42 68 0.0 1.0 0.19 0.59 0.59 97 1008.8
20260506155941 42 68 0.0 1.0 0.19 0.58 0.58 97 1009.1
20260506155439 42 58 0.0 1.0 0.12 0.56 0.56 97 1009.1
20260506153610 42 60 0.0 4.0 0.12 0.51 0.51 97 1009.1
20260506153108 42 31 1.0 2.0 0.12 0.50 0.50 97 1009.3
20260506152604 42 60 0.0 1.0 0.12 0.49 0.49 97 1008.9
20260506152102 42 60 0.0 1.0 0.12 0.48 0.48 97 1008.9
20260506151600 42 50 1.0 1.0 0.05 0.47 0.47 97 1008.7
20260506151057 42 48 1.0 1.0 0.07 0.46 0.46 97 1008.9
20260506150554 42 56 1.0 2.0 0.05 0.45 0.45 97 1008.5
20260506150050 42 63 0.0 0.0 0.05 0.45 0.45 97 1008.7
20260506145547 42 33 0.0 2.0 0.07 0.44 0.44 97 1008.7
20260506145045 42 33 0.0 2.0 0.07 0.43 0.43 97 1008.8
20260506144541 42 67 1.0 2.0 0.07 0.43 0.43 97 1008.9
20260506144039 42 46 1.0 2.0 0.05 0.42 0.42 97 1008.8
20260506143536 42 68 1.0 1.0 0.05 0.42 0.42 97 1009.0
20260506143035 42 63 0.0 1.0 0.07 0.41 0.41 97 1008.8
20260506142532 42 54 0.0 1.0 0.05 0.40 0.40 97 1009.0
20260506142030 42 24 1.0 2.0 0.05 0.40 0.40 97 1009.2
20260506141527 42 14 1.0 2.0 0.07 0.39 0.39 97 1009.1
20260506141026 42 42 1.0 1.0 0.07 0.39 0.39 96 1009.1
20260506140523 43 59 1.0 1.0 0.00 0.38 0.38 96 1009.0
20260506140020 43 29 2.0 2.0 0.05 0.38 0.38 96 1008.9
20260506135517 43 42 1.0 1.0 0.00 0.37 0.37 96 1008.5
20260506135013 43 43 1.0 1.0 0.00 0.37 0.37 96 1008.5
20260506134509 43 43 0.0 1.0 0.00 0.37 0.37 95 1008.8
20260506134006 43 43 1.0 1.0 0.00 0.37 0.37 95 1008.9
20260506133503 43 43 1.0 1.0 0.00 0.37 0.37 95 1009.2
20260506132959 44 56 1.0 1.0 0.00 0.37 0.37 95 1009.1
20260506132457 44 72 1.0 1.0 0.00 0.37 0.37 95 1009.3
20260506131954 44 80 0.0 1.0 0.00 0.37 0.37 95 1009.2
20260506131451 43 82 0.0 0.0 0.07 0.37 0.37 95 1009.4
20260506130947 43 54 0.0 2.0 0.07 0.37 0.37 96 1009.2
20260506130444 43 93 0.0 1.0 0.00 0.36 0.36 96 1009.4
20260506125942 43 56 0.0 1.0 0.00 0.36 0.36 96 1009.3
20260506125440 43 47 0.0 1.0 0.05 0.36 0.36 96 1009.5
20260506124938 43 46 0.0 1.0 0.05 0.36 0.36 96 1009.4
20260506124435 43 23 0.0 0.0 0.07 0.35 0.35 96 1009.5
20260506123933 43 25 0.0 1.0 0.07 0.35 0.35 96 1009.1
20260506123431 43 51 0.0 3.0 0.05 0.34 0.34 95 1009.4
20260506122928 43 119 1.0 2.0 0.05 0.34 0.34 96 1009.1
20260506122425 43 46 0.0 2.0 0.07 0.33 0.33 96 1009.9
20260506121923 44 49 0.0 1.0 0.12 0.33 0.33 96 1009.8
20260506121420 44 43 1.0 1.0 0.05 0.32 0.32 96 1010.1
20260506120917 44 56 0.0 1.0 0.07 0.31 0.31 96 1009.9
20260506120414 44 59 1.0 1.0 0.07 0.31 0.31 96 1010.1
20260506115911 44 60 0.0 0.0 0.00 0.30 0.30 96 1009.8
20260506115409 45 60 0.0 0.0 0.07 0.30 0.30 97 1010.0
20260506114908 45 60 0.0 1.0 0.05 0.29 0.29 97 1010.0
20260506114405 45 80 0.0 1.0 0.12 0.29 0.29 97 1010.3
20260506113904 45 54 1.0 1.0 0.07 0.28 0.28 97 1010.2
20260506113400 45 32 0.0 1.0 0.05 0.27 0.27 96 1010.2
20260506112857 45 32 0.0 0.0 0.07 0.26 0.26 96 1009.7
20260506112354 45 32 0.0 0.0 0.07 0.26 0.26 96 1009.8
20260506111851 45 38 0.0 1.0 0.00 0.25 0.25 97 1009.5
20260506111350 45 38 0.0 1.0 0.00 0.25 0.25 97 1009.2
20260506110847 45 39 0.0 1.0 0.00 0.25 0.25 97 1009.2
20260506110344 45 87 0.0 1.0 0.00 0.25 0.25 97 1009.1
20260506105841 45 87 0.0 0.0 0.00 0.25 0.25 97 1009.2
20260506105337 45 87 0.0 0.0 0.00 0.25 0.25 97 1009.2
20260506104835 45 87 0.0 0.0 0.05 0.25 0.25 97 1009.7
20260506104332 45 87 0.0 0.0 0.05 0.25 0.25 97 1009.3
20260506103829 45 87 0.0 0.0 0.00 0.24 0.24 97 1009.5
20260506103327 45 87 0.0 0.0 0.00 0.24 0.24 97 1009.1
20260506102824 46 87 0.0 1.0 0.00 0.24 0.24 97 1009.5
20260506102322 46 32 0.0 1.0 0.00 0.24 0.24 97 1009.2
20260506101819 46 32 0.0 1.0 0.00 0.24 0.24 97 1009.5
20260506101315 46 350 1.0 2.0 0.00 0.24 0.24 97 1009.6
20260506100813 46 32 1.0 1.0 0.00 0.24 0.24 97 1009.2
20260506100311 46 33 0.0 1.0 0.12 0.24 0.24 97 1009.4
20260506095809 47 4 2.0 2.0 0.17 0.23 0.23 97 1008.2
20260506095306 47 37 0.0 1.0 0.05 0.21 0.21 97 1009.8
20260506094803 47 37 0.0 1.0 0.00 0.20 0.20 97 1009.7
20260506094301 47 38 0.0 0.0 0.00 0.20 0.20 97 1009.5
20260506093759 47 37 0.0 1.0 0.00 0.20 0.20 97 1009.4
20260506093256 47 14 1.0 2.0 0.00 0.20 0.20 97 1009.5
20260506092754 47 59 0.0 0.0 0.00 0.20 0.20 97 1009.6
20260506092252 47 59 0.0 0.0 0.07 0.20 0.20 97 1009.7
20260506091748 47 59 0.0 1.0 0.05 0.19 0.19 97 1009.6
20260506091246 47 58 0.0 1.0 0.00 0.18 0.18 97 1010.2
20260506090744 47 62 0.0 0.0 0.00 0.18 0.18 97 1009.5
20260506090241 47 62 1.0 1.0 0.00 0.18 0.18 97 1009.8
20260506085737 47 62 0.0 0.0 0.00 0.18 0.18 97 1009.8
20260506085234 47 62 0.0 1.0 0.00 0.18 0.18 97 1009.5
20260506084730 47 62 0.0 0.0 0.00 0.18 0.18 97 1010.0
20260506084226 47 62 1.0 1.0 0.00 0.18 0.18 97 1009.5
20260506083724 47 62 0.0 0.0 0.07 0.18 0.18 97 1009.7
20260506083221 47 62 0.0 1.0 0.07 0.18 0.18 97 1009.8
20260506082719 47 62 0.0 1.0 0.00 0.17 0.17 97 1009.9
20260506082214 47 62 0.0 1.0 0.00 0.17 0.17 97 1009.9
20260506081712 47 62 0.0 1.0 0.00 0.17 0.17 97 1009.9
20260506081209 48 62 0.0 0.0 0.07 0.17 0.17 97 1010.0
20260506080707 48 62 1.0 1.0 0.12 0.17 0.17 97 1009.9
20260506080203 48 62 0.0 1.0 0.17 0.16 0.16 97 1010.0
20260506073148 49 62 0.0 0.0 0.00 0.12 0.12 97 1010.1
20260506072644 49 62 0.0 1.0 0.00 0.12 0.12 97 1009.8
20260506072142 49 62 0.0 0.0 0.00 0.12 0.12 97 1009.9
20260506071639 49 62 0.0 1.0 0.00 0.12 0.12 97 1009.7
20260506071137 49 62 0.0 0.0 0.00 0.12 0.12 97 1009.4
20260506070634 49 62 0.0 0.0 0.00 0.12 0.12 97 1009.9
20260506070131 49 62 0.0 0.0 0.05 0.12 0.12 97 1009.6
20260506062103 50 62 0.0 0.0 0.00 0.10 0.10 97 1009.7
20260506061558 50 62 0.0 1.0 0.00 0.10 0.10 97 1009.9
20260506061056 50 62 0.0 1.0 0.00 0.10 0.10 97 1010.0
20260506060555 50 62 0.0 1.0 0.00 0.10 0.10 97 1009.9
20260506051024 50 64 0.0 0.0 0.07 0.07 0.07 97 1010.1
20260506050521 50 64 0.0 1.0 0.07 0.07 0.07 96 1009.4
20260506045011 50 67 0.0 0.0 0.05 0.05 0.05 96 1009.6
20260506044510 51 66 0.0 1.0 0.12 0.05 0.05 96 1009.3
20260506044006 51 66 0.0 1.0 0.07 0.04 0.04 96 1009.2
20260506043503 51 71 0.0 1.0 0.00 0.03 0.03 96 1009.3
20260506043001 51 79 0.0 0.0 0.05 0.03 0.03 96 1009.2
20260506042500 51 79 1.0 1.0 0.05 0.03 0.03 96 1009.1
20260506041957 51 79 0.0 1.0 0.00 0.02 0.02 96 1009.2
20260506041455 51 88 0.0 0.0 0.07 0.02 0.02 95 1009.9
20260506040952 51 88 0.0 0.0 0.05 0.01 0.01 95 1009.4
20260506040450 51 88 0.0 0.0 0.05 0.01 0.01 95 1009.6
20260506035946 51 88 1.0 1.0 0.07 0.40 0.40 95 1009.4
20260506035443 51 87 1.0 2.0 0.07 0.40 0.40 95 1009.5
20260506034939 51 88 1.0 1.0 0.00 0.39 0.39 94 1009.4
20260506034437 51 88 0.0 1.0 0.00 0.39 0.39 94 1009.3
20260506033934 51 88 0.0 1.0 0.00 0.39 0.39 94 1009.3
20260506033431 51 88 1.0 1.0 0.05 0.39 0.39 93 1009.6
20260506032928 51 88 1.0 1.0 0.12 0.39 0.39 93 1009.4
20260506032425 52 88 0.0 1.0 0.12 0.38 0.38 92 1009.3
20260506031921 52 88 1.0 1.0 0.17 0.37 0.37 90 1009.5
20260506031419 53 88 0.0 0.0 0.12 0.35 0.35 89 1009.0
20260506030916 53 90 0.0 1.0 0.14 0.34 0.34 86 1009.1
20260506030414 54 100 1.0 2.0 0.00 0.32 0.32 85 1008.8
20260506025911 54 39 1.0 2.0 0.00 0.32 0.32 84 1008.8
20260506025408 54 64 0.0 0.0 0.00 0.32 0.32 86 1008.6
20260506024905 55 64 0.0 1.0 0.00 0.32 0.32 83 1008.2
20260506024402 55 35 1.0 2.0 0.00 0.32 0.32 80 1008.2
20260506023857 55 28 1.0 2.0 0.00 0.32 0.32 82 1008.6
20260506023355 55 345 2.0 3.0 0.05 0.32 0.32 79 1008.0
20260506022851 55 18 2.0 2.0 0.05 0.32 0.32 87 1008.2
20260506022349 55 55 0.0 1.0 0.00 0.31 0.31 91 1008.4
20260506021847 56 56 0.0 1.0 0.00 0.31 0.31 89 1008.1
20260506021343 56 59 0.0 1.0 0.00 0.31 0.31 87 1008.1
20260506020840 57 60 0.0 3.0 0.07 0.31 0.31 86 1007.9
20260506020338 58 7 2.0 6.0 0.12 0.31 0.31 85 1008.6
20260506015835 58 304 4.0 6.0 0.17 0.30 0.30 89 1008.4
20260506015333 59 26 1.0 1.0 0.05 0.28 0.28 86 1008.0
20260506014829 59 33 0.0 1.0 0.00 0.27 0.27 86 1007.9
20260506014326 59 38 0.0 0.0 0.00 0.27 0.27 86 1007.7
20260506013823 58 41 2.0 3.0 0.00 0.27 0.27 86 1007.3
20260506013320 58 114 1.0 1.0 0.00 0.27 0.27 88 1007.2
20260506012817 58 110 0.0 1.0 0.00 0.27 0.27 88 1007.1
20260506012314 59 110 0.0 0.0 0.00 0.27 0.27 86 1007.0
20260506011811 59 110 0.0 0.0 0.00 0.27 0.27 85 1006.9
20260506011307 59 108 1.0 3.0 0.00 0.27 0.27 82 1006.7
20260506010805 60 108 1.0 6.0 0.00 0.27 0.27 81 1006.7
20260506010303 60 92 1.0 3.0 0.00 0.27 0.27 81 1006.6
20260506005759 60 120 1.0 2.0 0.00 0.27 0.27 82 1006.8
20260506005256 59 88 1.0 2.0 0.00 0.27 0.27 82 1006.7
20260506004752 59 130 1.0 2.0 0.00 0.27 0.27 83 1006.4
20260506004250 60 110 0.0 0.0 0.00 0.27 0.27 83 1006.9
20260506003746 60 110 0.0 1.0 0.00 0.27 0.27 81 1006.5
20260506003242 60 110 1.0 4.0 0.00 0.27 0.27 81 1006.4
20260506002739 60 116 0.0 1.0 0.00 0.27 0.27 82 1006.0
20260506002235 60 109 1.0 1.0 0.00 0.27 0.27 81 1006.1
20260506001731 60 136 1.0 2.0 0.00 0.27 0.27 81 1006.1
20260506001229 60 131 2.0 3.0 0.00 0.27 0.27 81 1006.1
20260506000725 60 60 1.0 1.0 0.00 0.27 0.27 82 1006.2
20260506000223 60 123 0.0 1.0 0.00 0.27 0.27 83 1006.2
20260505235720 60 105 0.0 2.0 0.00 0.27 0.27 82 1006.1
20260505235218 60 110 1.0 2.0 0.00 0.27 0.27 82 1006.0
20260505234714 61 120 1.0 2.0 0.00 0.27 0.27 81 1005.8
20260505234212 61 160 2.0 6.0 0.00 0.27 0.27 79 1006.0
20260505233708 61 134 4.0 7.0 0.00 0.27 0.27 80 1006.1
20260505233206 60 195 2.0 7.0 0.00 0.27 0.27 82 1005.9
20260505232703 60 104 1.0 2.0 0.00 0.27 0.27 84 1006.0
20260505232200 60 105 0.0 1.0 0.00 0.27 0.27 84 1005.9
20260505231657 60 163 2.0 3.0 0.00 0.27 0.27 84 1005.7
20260505231156 60 113 1.0 4.0 0.00 0.27 0.27 84 1005.7
20260505230654 61 105 0.0 3.0 0.00 0.27 0.27 83 1005.7
20260505230150 61 116 2.0 3.0 0.00 0.27 0.27 83 1005.3
20260505225646 61 81 1.0 2.0 0.00 0.27 0.27 83 1005.4
20260505225143 61 200 2.0 4.0 0.00 0.27 0.27 82 1005.2
20260505224639 61 173 1.0 6.0 0.00 0.27 0.27 84 1005.3
20260505224137 61 89 1.0 2.0 0.00 0.27 0.27 86 1005.3
20260505223634 61 111 1.0 3.0 0.00 0.27 0.27 84 1005.4
20260505223130 61 198 4.0 7.0 0.00 0.27 0.27 86 1005.5
20260505222626 61 118 1.0 4.0 0.00 0.27 0.27 85 1005.8
20260505222123 61 128 2.0 3.0 0.00 0.27 0.27 86 1005.5
20260505221620 61 114 0.0 1.0 0.00 0.27 0.27 86 1005.4
20260505221116 61 112 0.0 2.0 0.00 0.27 0.27 84 1005.1
20260505220614 61 124 1.0 4.0 0.00 0.27 0.27 83 1005.3
20260505220111 61 118 1.0 4.0 0.00 0.27 0.27 83 1005.1
20260505215609 61 351 0.0 1.0 0.00 0.27 0.27 87 1005.4
20260505215107 62 8 1.0 2.0 0.00 0.27 0.27 84 1005.4
20260505214605 61 33 1.0 2.0 0.00 0.27 0.27 86 1005.3
20260505214101 60 23 1.0 1.0 0.00 0.27 0.27 89 1005.1
20260505213559 60 93 1.0 2.0 0.00 0.27 0.27 87 1005.3
20260505213055 59 101 0.0 2.0 0.00 0.27 0.27 84 1005.0
20260505212551 59 151 2.0 2.0 0.00 0.27 0.27 86 1005.2
20260505212049 59 120 1.0 2.0 0.00 0.27 0.27 89 1005.3
20260505211546 60 114 1.0 1.0 0.00 0.27 0.27 88 1005.2
20260505211043 60 113 0.0 2.0 0.00 0.27 0.27 87 1004.6
20260505210539 60 86 1.0 1.0 0.00 0.27 0.27 87 1004.9
20260505210037 60 48 0.0 0.0 0.00 0.27 0.27 88 1004.5
20260505205535 60 158 2.0 2.0 0.00 0.27 0.27 85 1004.5
20260505205031 61 99 1.0 2.0 0.00 0.27 0.27 84 1004.5
20260505204529 61 160 3.0 4.0 0.00 0.27 0.27 85 1004.6
20260505204026 61 150 2.0 3.0 0.00 0.27 0.27 86 1004.5
20260505203523 60 119 1.0 2.0 0.07 0.27 0.27 90 1004.7
20260505203020 60 160 2.0 3.0 0.12 0.27 0.27 86 1004.9
20260505202516 60 160 2.0 3.0 0.12 0.26 0.26 87 1004.9
20260505202012 60 50 2.0 4.0 0.24 0.25 0.25 87 1005.3
20260505201510 60 43 2.0 3.0 0.17 0.24 0.24 90 1004.6
20260505201007 60 3 2.0 6.0 0.00 0.21 0.21 90 1004.9
20260505200504 60 15 0.0 1.0 0.00 0.21 0.21 92 1004.3
20260505200000 61 5 2.0 3.0 0.00 0.21 0.21 91 1004.0
20260505195457 61 51 1.0 1.0 0.00 0.21 0.21 88 1003.4
20260505194955 62 90 1.0 1.0 0.00 0.21 0.21 85 1003.3
20260505194452 62 88 0.0 2.0 0.00 0.21 0.21 88 1003.0
20260505193947 61 105 1.0 2.0 0.00 0.21 0.21 88 1003.5
20260505193444 61 98 0.0 2.0 0.00 0.21 0.21 91 1003.3
20260505192942 61 92 1.0 1.0 0.00 0.21 0.21 89 1003.8
20260505192440 61 83 0.0 1.0 0.00 0.21 0.21 91 1003.6
20260505191937 61 236 2.0 2.0 0.00 0.21 0.21 90 1003.6
20260505191436 60 105 0.0 1.0 0.07 0.21 0.21 90 1003.6
20260505190932 60 90 1.0 1.0 0.92 0.21 0.21 89 1003.9
20260505190427 61 30 1.0 4.0 0.90 0.20 0.20 86 1003.2
20260505185922 63 314 4.0 4.0 0.00 0.05 0.05 85 1003.6
20260505185420 63 91 1.0 1.0 0.00 0.05 0.05 80 1002.6
20260505184916 63 91 0.0 4.0 0.31 0.05 0.05 77 1002.2
20260505184413 65 7 2.0 4.0 0.31 0.05 0.05 75 1002.9
20260505183910 69 327 4.0 6.0 0.00 0.00 0.00 62 1002.8
20260505183407 70 16 1.0 3.0 0.00 0.00 0.00 57 1002.2
20260505182903 71 177 2.0 10.0 0.00 0.00 0.00 51 1002.0
20260505182400 71 120 1.0 8.0 0.00 0.00 0.00 49 1001.8
20260505181856 72 191 2.0 7.0 0.00 0.00 0.00 46 1001.7
20260505181354 72 220 6.0 11.0 0.00 0.00 0.00 46 1001.9
20260505180850 72 253 3.0 14.0 0.00 0.00 0.00 49 1001.9
20260505180347 71 134 2.0 9.0 0.00 0.00 0.00 47 1001.8
20260505175839 71 178 6.0 8.0 0.00 0.00 0.00 48 1001.8
20260505175334 72 144 2.0 4.0 0.00 0.00 0.00 47 1001.9
20260505174831 73 160 4.0 8.0 0.00 0.00 0.00 44 1001.8
20260505174328 73 221 6.0 13.0 0.00 0.00 0.00 44 1001.9
20260505173824 74 196 9.0 14.0 0.00 0.00 0.00 42 1002.1
20260505173320 75 228 5.0 8.0 0.00 0.00 0.00 41 1001.7
20260505172818 76 101 5.0 8.0 0.00 0.00 0.00 41 1002.0